Weather Service Report


978 
FPUS83 KFGF 012031
OPUFGF
PRAIRIE TO PINES WEATHER ROUNDUP
NATIONAL WEATHER SERVICE EASTERN NORTH DAKOTA/GRAND FORKS ND
200 PM CST WED MAR 01 2017

 **SATELLITE DATA USED TO AUGMENT SKY COVER AT AUTOMATED STATIONS**
 *****  WEATHER ACROSS EASTERN NORTH DAKOTA  *****
  
CITY           SKY/WX    TMP DP  RH WIND       PRES   REMARKS
GRAND FORKS    PTSUNNY   23   9  55 N14       30.08  WCI  11          
GRAND FORKS AF FAIR      23  10  58 NW13      30.09R WCI  11          
GRAND CITY NWS NOT AVBL                                               
BUXTON         NOT AVBL                                               
DEVILS LAKE    FAIR      15   9  76 NW14      30.09  WCI   0          
FARGO          CLOUDY    24  16  71 NW18      30.06S WCI  10          
WAHPETON ARPT  CLOUDY    27  18  69 N18G24    30.06S WCI  13          
$$

 *****  WEATHER ACROSS CENTRAL AND WESTERN NORTH DAKOTA  *****
  
CITY           SKY/WX    TMP DP  RH WIND       PRES   REMARKS
JAMESTOWN      CLOUDY    22  13  68 NW21G29   30.08R WCI   6          
BISMARCK       CLOUDY    27  15  61 NW6       30.12  WCI  20          
MINOT          FAIR      20  11  68 NW9       30.10  WCI   9          
MINOT AFB      FAIR      18  11  75 N7        30.10  WCI   8          
GARRISON         N/A     17  11  77 NW6       30.09  WCI   9          
WILLISTON      CLOUDY    23  12  62 CALM      30.08                   
DICKINSON      LGT SNOW  24  16  71 W12       30.02  WCI  13          
HETTINGER      CLOUDY    33  14  45 W14G25    30.04  WCI  23          
$$

 *****  OTHER OBSERVATIONS NORTHEAST NORTH DAKOTA  *****
  
CITY           SKY/WX    TMP DP  RH WIND       PRES   REMARKS
WALHALLA       NOT AVBL                                               
LANGDON        NOT AVBL                                               
CAVALIER         N/A     18  10  73 N13       30.10R WCI   4          
GRAFTON        FAIR      18  10  73 N15       30.11R WCI   3          
CANDO          NOT AVBL                                               
FORT TOTTEN      N/A     21  11  65 NW7       29.95  WCI  12          
ROLLA          FAIR      14   9  79 N15       30.08R WCI  -1          
RUGBY            N/A     14   9  79 W10       30.10S WCI   1          
 ***** THE ABOVE OBSERVATIONS ARE NON NWS ARE NOT QUALITY
        CONTROLLED AND MAY MIS-REPORT RAIN FOR SNOW...
$$

 *****  OTHER OBSERVATIONS SOUTHEAST NORTH DAKOTA *****
  
CITY           SKY/WX    TMP DP  RH WIND       PRES   REMARKS
COOPERSTOWN    CLOUDY    19  14  79 NW17      30.08R WCI   4          
VALLEY CITY    FLURRIES  23  16  74 NW18G26   30.09R WCI   9          
OAKES          NOT AVBL                                               
GWINNER        MOCLDY    27  19  74 NW15      30.09R WCI  15          
SHEYENNE NWR     N/A     27  14  58 NW14      29.95S WCI  16          
BUFFALO        NOT AVBL                                               
WYNDMERE         N/A     27  18  69 NW17        N/A  WCI  14          
 ***** THE ABOVE OBSERVATIONS ARE NON NWS ARE NOT QUALITY
       CONTROLLED AND MAY MIS-REPORT RAIN FOR SNOW...
$$

  *****  WEATHER ACROSS NORTHERN MINNESOTA  *****     
  
CITY           SKY/WX    TMP DP  RH WIND       PRES   REMARKS
FLAG ISLAND    FAIR      21   9  58 N3        29.98F                  
WARROAD        FAIR      25  12  58 NW6       30.00R WCI  18          
ROSEAU         LGT SNOW  23  18  80 W9        30.01R WCI  13          
HALLOCK        FAIR      19  10  68 NW13G20   30.08R WCI   7          
THF RVR FALLS  FLURRIES  21  15  78 NW15      30.03R WCI   8          
HALSTAD          N/A     20  14  76 N16         N/A  WCI   6          
FOSSTON        CLOUDY    23  16  74 NW13      30.01R WCI  11          
BAUDETTE       CLOUDY    19  10  68 N13       29.97  WCI   6          
WASKISH        CLOUDY    25  14  63 NW9       29.97R WCI  15          
CROOKSTON      FAIR      21  12  68 N16       30.08R WCI   7          
$$
  *****  WEATHER ACROSS CENTRAL AND WEST MINNESOTA  *****     
  
CITY           SKY/WX    TMP DP  RH WIND       PRES   REMARKS
BEMIDJI        PTSUNNY   26  10  51 NW12      29.95R WCI  15          
PARK RAPIDS    CLOUDY    28  11  48 NW12      29.93  WCI  18          
WADENA         FLURRIES  27  18  69 NW15      29.95R WCI  15          
DETROIT LAKES  CLOUDY    23  18  80 NW18G26   30.01R WCI   9          
MOORHEAD       LGT RAIN  21  16  79 NW18G24   30.07R WCI   6          
FERGUS FALLS   CLOUDY    21  16  79 N17G26    30.08R WCI   7          
ELBOW LAKE     CLOUDY    22  17  81 W18G26    30.03R WCI   8          
MORRIS MN      CLOUDY    27  18  69 NW20G25   30.03R WCI  13          
STAPLES        FLURRIES  28  18  64 NW9       29.94R WCI  20          
WHEATON        FAIR      28  16  59 NW20G25   30.07R WCI  15          
$$
  *****  WEATHER ELSEWHERE ACROSS MINNESOTA  *****     
  
CITY           SKY/WX    TMP DP  RH WIND       PRES   REMARKS
DULUTH         FAIR      28   5  37 CALM      29.85                   
INTRNTL FALLS  CLOUDY    23  -1  35 N9        29.93  WCI  13          
ELY            FAIR      27  -9  20 NW5       29.87R WCI  21          
CLOQUET        FAIR      30   0  27 N3        29.87S                  
BRAINERD       PTSUNNY   31  11  43 NW9       29.92  WCI  23          
HIBBING        PTSUNNY   27   3  35 NW7       29.87  WCI  19          
ALEXANDRIA     CLOUDY    28  18  66 NW18G25   29.97  WCI  15          
SAINT CLOUD    CLOUDY    34  22  61 NW10      29.92R                  
MINNEAPOLIS    PTSUNNY   35  22  58 NW15      29.92                   
$$

  *****  WEATHER ACROSS SOUTH DAKOTA  *****
  
CITY           SKY/WX    TMP DP  RH WIND       PRES   REMARKS
SIOUX FALLS    CLOUDY    31  24  75 NW15G24   30.07  WCI  20          
BROOKINGS      CLOUDY    28  22  78 NW18G25   30.03  WCI  15          
WATERTOWN      CLOUDY    27  17  66 NW18G28   30.03R WCI  14          
HURON          CLOUDY    28  22  78 NW18      30.12  WCI  15          
SISSETON         N/A     27  19  72 N22       30.04  WCI  13          
ABERDEEN       FAIR      31  18  58 NW18      30.10  WCI  19          
MITCHELL       CLOUDY    32  26  78 NW21      30.14  WCI  20          
PIERRE         FAIR      30  19  63 NW15      30.13  WCI  19          
MOBRIDGE       FAIR      33  15  47 N14G21    30.08  WCI  23          
RAPID CITY     PTSUNNY   41   9  26 NW14G23   30.05                   
$$

  *****  SOME WEATHER IN NEARBY STATES *****
  
CITY           SKY/WX    TMP DP  RH WIND       PRES   REMARKS
GLASGOW MT     FAIR      34  20  56 W10       29.96                   
GREAT FALLS MT PTSUNNY   39  19  44 W25G37    29.98                   
CHEYENNE WY    FAIR      32  12  43 W24G33    30.13  WCI  19          
SCOTTSBLUFF NE FAIR      36  19  50 W22G32    30.16                   
OMAHA NE       CLOUDY    41  26  55 NW23G31   30.11                   
DES MOINES IA  PTSUNNY   41  26  55 NW22G30   30.01                   
DAVENPORT IA   CLOUDY    37  30  75 NW32G45   29.83R                  
CHICAGO IL     DRIZZLE   40  34  79 W15G23    29.63                   
EAU CLAIRE WI  CLOUDY    28  19  69 NW15G21   29.87  WCI  16          
LA CROSSE WI   MIX PCPN  32  25  75 N20       29.85R WCI  20          
$$

  *****  SOME NATIONAL WEATHER *****
  
CITY           SKY/WX    TMP DP  RH WIND       PRES   REMARKS
LA GUARDIA NY  PTSUNNY   63  55  75 SE9       29.51                   
RALEIGH NC     PTSUNNY   76  55  48 SW23G33   29.85                   
ATLANTA GA     PTSUNNY   79  59  50 SW15G30   29.91                   
NEW ORLEANS LA PTSUNNY   81  68  64 W15G23    29.99                   
OKLAHOMA CITY  FAIR      59   8  13 NW24G31   30.24                   
ALBUQUERQUE NM FAIR      45  -1  14 NW9G22    30.30                   
SALT LAKE CITY PTSUNNY   40  18  41 VRB5      30.45                   
LOS ANGELES CA FAIR      70  32  24 SE6       30.26                   
BOISE ID       CLOUDY    45  25  45 NW9       30.42                   
SEATTLE WA     CLOUDY    46  40  79 S14G22    30.43R                  
$$

*** WEATHER ACROSS MANITOBA...SASKATCHEWAN AND ONTARIO ***
                ***ONTARIO***
  
CITY           SKY/WX    TMP DP  RH WIND       PRES   REMARKS
GERALDTON      MOSUNNY   10 -15  31 E13G22    29.90F WCI  -5          
THUNDER BAY    MOSUNNY   23  -4  30 NW5       29.89F WCI  17          
SIOUX LOOKOUT  PTSUNNY   18 -11  27 NW6       29.94F WCI   9          
TORONTO        CLOUDY    55  50  82 SW20G28   29.24S                  
BIG TROUT LK   SUNNY     16  -2  45 SW8       29.92F WCI   5          
PICKLE LAKE    PTSUNNY   14 -13  29 S3        29.93F                  
DRYDEN         CLOUDY    19  -2  38 NE12      29.92F WCI   7          
KENORA         PTSUNNY   21   3  45 W8        29.95F WCI  12          
$$      
                *** MANITOBA***
  
CITY           SKY/WX    TMP DP  RH WIND       PRES   REMARKS
BRANDON        MOSUNNY   16   7  67 W12       30.12R WCI   3          
DAUPHIN        FLURRIES  16   7  67 NE3       30.17R                  
ISLAND LAKE    MOSUNNY    7 -11  43 W15       30.05R WCI -11          
PILOT MOUND      N/A     14   7  73 NW10        N/A  WCI   1          
THE PAS        MOSUNNY    1 -17  42 NW8       30.24R WCI -12          
THOMPSON       SUNNY     -8 -22  49 NW9       30.18R WCI -25          
WINNIPEG       MOSUNNY   18  10  73 W16       30.09R WCI   3          
LYNN LAKE      SUNNY    -11 -22  58 NW10      30.21R WCI -30          
CHURCHILL      LGT SNOW -20 -26  76 NW14      30.15R DRFTSNOWWCI -44  
GILLAM         PTSUNNY  -11 -20  64 NW12      30.11R WCI -31          
$$
                ***SASKATCHEWAN***
  
CITY           SKY/WX    TMP DP  RH WIND       PRES   REMARKS
ESTEVAN        PTSUNNY   14  10  85 SW2       30.09F FOG              
KINDERSLEY     PTSUNNY   25  12  58 SE7       29.94S WCI  17          
LLOYDMINSTER   LGT SNOW  10   5  79 NE13      30.04R DRFTSNOWWCI  -5  
PRINCE ALBERT  FLURRIES   5  -8  56 E8        30.19S WCI  -8          
REGINA         PTSUNNY   16  10  79 SE10      30.06F WCI   3          
YORKTON        SUNNY     14   7  73 NE5       30.11R WC

Return to Home page


Western Regional Climate Center, wrcc@dri.edu